World > North America > United States > Missouri > Willow Springs

Willow Springs, MO Hourly Weather Conditions

Feedback E-mail the Weather

Quick WX

Willow Springs, MO Weather Maps

°F °C°F °C
Willow Springs Weather Map
UTC Time: 11/30/2022, 03:18
Your Time:

Willow Springs, MO Regional Weather

Expires:202211300400;;038986
ASUS43 KEAX 300315
RWREAX

WEATHER ROUNDUP FOR EASTERN KANSAS AND NORTHWEST MISSOURI
NATIONAL WEATHER SERVICE KANSAS CITY/PLEASANT HILL MO
900 PM CST TUE NOV 29 2022


MOZ041-047>049-056>058-063>065-088>090-097-300400-
...EASTERN AND SOUTHERN MISSOURI...
  
CITY           SKY/WX    TMP DP  RH WIND       PRES   REMARKS
ST. LOUIS INTL MOCLDY    42  33  70 W25G33    29.80R WCI  32          
SPIRIT OF STL  CLOUDY    40  32  73 W16G30    29.81R WCI  31          
COLUMBIA       CLOUDY    35  25  66 NW23G32   29.90R WCI  23          
JEFFERSON CITY CLOUDY    37  26  64 NW18G26   29.93R WCI  27          
MEXICO           N/A     32  27  80 NW20G29   29.88R WCI  20          
HANNIBAL       CLOUDY    34  25  69 NW23G31   29.86R WCI  22          
ROLLA          CLOUDY    34  27  75 NW23G33   29.87R WCI  22          
LEBANON        CLOUDY    36  28  75 N9G23     29.90R WCI  29          
OSAGE BEACH    CLOUDY    35  27  72 NW10G17     N/A  WCI  27          
SPRINGFIELD    CLOUDY    35  28  75 NW20G25   29.90R WCI  24          
BRANSON        MOCLDY    37  32  81 NW14G22   29.91R WCI  29          
JOPLIN         CLOUDY    34  24  67 NW22G30   30.05R WCI  22          
WEST PLAINS    CLEAR     43  33  68 NW16G26   29.83R                  
SIKESTON       CLOUDY    63  63 100 S9        29.69R FOG              

$$


SKY/WX - Weather  TMP - Temperature  DP - Dew Point  RH - Humidity
WIND - Wind Direction/Speed PRES - Barometric Pressure VSB - Visibility
WCI - Wind Chill Index E13G22 Wind - East Wind 13 mph/Gusts of 22 mph

Trending Headlines

Trending Entertainment Headlines

Willow Springs Radar Loop

Use the map search tool if you want to place a location marker on the radar map...

Willow Springs Quick Facts

National Two Day Weather Forecast


E-mail the Willow Springs Weather Forecast

Voice your opinion or tell us about page issues...